AE5HO Weather Reports


Display with metric or nautical units.
time (UTC)temp
F
wind
direction
speed
MPH
gust
MPH
rain 1hr
in
rain 24hr
in
rain mn
in
humidity
%
barometer
mb
20260906222221 100 165 0.0 2.0 0.00 0.00 0.00 42 1011.6
20260906221720 100 270 0.0 1.0 0.00 0.00 0.00 42 1011.4
20260906221214 100 69 1.0 3.0 0.00 0.00 0.00 42 1011.4
20260906220709 100 201 2.0 2.0 0.00 0.00 0.00 42 1011.4
20260906220205 99 204 2.0 3.0 0.00 0.00 0.00 43 1011.7
20260906215703 99 90 0.0 2.0 0.00 0.00 0.00 42 1011.4
20260906215202 99 169 0.0 2.0 0.00 0.00 0.00 43 1011.7
20260906214701 99 202 0.0 2.0 0.00 0.00 0.00 43 1011.5
20260906214156 99 212 0.0 5.0 0.00 0.00 0.00 42 1011.8
20260906213650 99 188 0.0 3.0 0.00 0.00 0.00 42 1011.6
20260906213150 99 236 2.0 2.0 0.00 0.00 0.00 43 1011.9
20260906212647 100 257 0.0 2.0 0.00 0.00 0.00 44 1012.0
20260906212144 99 195 1.0 2.0 0.00 0.00 0.00 43 1012.0
20260906211643 99 234 0.0 3.0 0.00 0.00 0.00 44 1012.0
20260906211138 100 217 2.0 4.0 0.00 0.00 0.00 43 1012.1
20260906210634 100 162 2.0 2.0 0.00 0.00 0.00 44 1012.3
20260906210133 99 262 1.0 2.0 0.00 0.00 0.00 44 1012.3
20260906205629 100 264 0.0 2.0 0.00 0.00 0.00 43 1012.3
20260906205125 100 180 0.0 2.0 0.00 0.00 0.00 45 1012.3
20260906204624 99 264 2.0 2.0 0.00 0.00 0.00 45 1012.4
20260906204120 99 215 2.0 3.0 0.00 0.00 0.00 45 1012.6
20260906203619 100 165 0.0 2.0 0.00 0.00 0.00 44 1012.4
20260906203114 100 74 0.0 2.0 0.00 0.00 0.00 45 1012.7
20260906202611 99 245 3.0 4.0 0.00 0.00 0.00 45 1012.6
20260906202111 100 285 0.0 2.0 0.00 0.00 0.00 45 1012.8
20260906201606 100 63 2.0 3.0 0.00 0.00 0.00 44 1012.9
20260906201105 99 175 2.0 4.0 0.00 0.00 0.00 46 1012.9
20260906200601 99 168 0.0 3.0 0.00 0.00 0.00 45 1012.8
20260906200057 99 176 2.0 4.0 0.00 0.00 0.00 44 1012.9
20260906195552 99 106 1.0 4.0 0.00 0.00 0.00 45 1013.1
20260906195048 99 77 0.0 3.0 0.00 0.00 0.00 45 1012.8
20260906194544 99 184 2.0 5.0 0.00 0.00 0.00 45 1013.1
20260906194040 99 263 1.0 3.0 0.00 0.00 0.00 46 1013.5
20260906193539 99 90 2.0 4.0 0.00 0.00 0.00 45 1013.3
20260906193035 99 90 0.0 0.0 0.00 0.00 0.00 46 1013.1
20260906192530 99 90 0.0 2.0 0.00 0.00 0.00 45 1013.5
20260906192029 98 180 1.0 2.0 0.00 0.00 0.00 45 1013.4
20260906191524 98 172 0.0 4.0 0.00 0.00 0.00 46 1013.5
20260906191023 97 201 0.0 3.0 0.00 0.00 0.00 48 1013.6
20260906190523 98 168 0.0 3.0 0.00 0.00 0.00 47 1013.6
20260906190018 97 248 0.0 3.0 0.00 0.00 0.00 49 1013.7
20260906185517 97 197 3.0 5.0 0.00 0.00 0.00 49 1013.6
20260906185016 97 199 3.0 3.0 0.00 0.00 0.00 49 1013.6
20260906184511 96 83 1.0 2.0 0.00 0.00 0.00 49 1013.6
20260906184007 96 257 0.0 2.0 0.00 0.00 0.00 50 1013.9
20260906183503 96 70 0.0 2.0 0.00 0.00 0.00 50 1014.0
20260906182958 97 198 0.0 2.0 0.00 0.00 0.00 50 1014.0
20260906182453 96 265 0.0 3.0 0.00 0.00 0.00 50 1013.7
20260906181949 96 200 0.0 4.0 0.00 0.00 0.00 51 1014.1
20260906181444 96 0 0.0 2.0 0.00 0.00 0.00 50 1014.3
20260906180940 96 195 0.0 2.0 0.00 0.00 0.00 51 1014.0
20260906180435 97 180 2.0 3.0 0.00 0.00 0.00 48 1014.3
20260906175932 96 200 0.0 4.0 0.00 0.00 0.00 51 1014.1
20260906175428 96 168 1.0 3.0 0.00 0.00 0.00 51 1014.4
20260906174926 96 63 0.0 2.0 0.00 0.00 0.00 52 1014.7
20260906174426 96 187 2.0 3.0 0.00 0.00 0.00 51 1014.5
20260906173921 96 264 2.0 4.0 0.00 0.00 0.00 54 1014.8
20260906173416 95 270 0.0 3.0 0.00 0.00 0.00 54 1014.8
20260906172915 96 250 0.0 2.0 0.00 0.00 0.00 52 1014.8
20260906172413 96 212 0.0 2.0 0.00 0.00 0.00 53 1015.1
20260906171907 96 251 2.0 4.0 0.00 0.00 0.00 52 1015.1
20260906171401 96 228 0.0 3.0 0.00 0.00 0.00 53 1015.2
20260906170857 96 246 0.0 3.0 0.00 0.00 0.00 54 1015.1
20260906170353 96 209 0.0 2.0 0.00 0.00 0.00 55 1015.0
20260906165850 96 180 0.0 3.0 0.00 0.00 0.00 55 1015.2
20260906165348 95 270 0.0 3.0 0.00 0.00 0.00 55 1015.2
20260906164844 94 209 1.0 2.0 0.00 0.00 0.00 57 1015.3
20260906164342 95 270 0.0 3.0 0.00 0.00 0.00 55 1015.4
20260906163839 95 188 0.0 3.0 0.00 0.00 0.00 55 1015.5
20260906163335 96 270 0.0 2.0 0.00 0.00 0.00 55 1015.3
20260906162832 96 190 2.0 3.0 0.00 0.00 0.00 55 1015.4
20260906162331 95 270 0.0 2.0 0.00 0.00 0.00 56 1015.2
20260906161827 95 191 2.0 2.0 0.00 0.00 0.00 56 1015.4
20260906161326 94 264 2.0 2.0 0.00 0.00 0.00 59 1015.4
20260906160825 93 255 0.0 4.0 0.00 0.00 0.00 60 1015.4
20260906160319 93 175 0.0 2.0 0.00 0.00 0.00 60 1015.2
20260906155817 93 180 0.0 2.0 0.00 0.00 0.00 61 1015.4
20260906155311 92 257 1.0 2.0 0.00 0.00 0.00 61 1015.3
20260906154808 94 180 0.0 2.0 0.00 0.00 0.00 61 1015.4
20260906154302 93 83 0.0 3.0 0.00 0.00 0.00 62 1015.3
20260906153801 92 194 0.0 2.0 0.00 0.00 0.00 63 1015.6
20260906153255 91 180 0.0 2.0 0.00 0.00 0.00 66 1015.1
20260906152750 92 254 0.0 1.0 0.00 0.00 0.00 65 1015.0
20260906152245 92 180 3.0 3.0 0.00 0.00 0.00 64 1015.0
20260906151744 90 260 0.0 2.0 0.00 0.00 0.00 68 1014.8
20260906151240 89 254 0.0 2.0 0.00 0.00 0.00 68 1015.0
20260906150735 89 195 0.0 1.0 0.00 0.00 0.00 69 1014.9
20260906150231 89 289 2.0 2.0 0.00 0.00 0.00 69 1014.8
20260906145729 89 255 0.0 2.0 0.00 0.00 0.00 70 1014.9
20260906145229 89 66 0.0 2.0 0.00 0.00 0.00 70 1014.8
20260906144724 88 270 0.0 1.0 0.00 0.00 0.00 70 1014.8
20260906144219 88 172 0.0 2.0 0.00 0.00 0.00 71 1014.8
20260906143718 86 263 0.0 2.0 0.00 0.00 0.00 75 1014.8
20260906143216 86 261 0.0 1.0 0.00 0.00 0.00 75 1014.7
20260906142715 85 192 0.0 1.0 0.00 0.00 0.00 75 1014.9
20260906142210 85 180 0.0 0.0 0.00 0.00 0.00 76 1014.7
20260906141709 84 187 0.0 1.0 0.00 0.00 0.00 77 1014.8
20260906141204 84 270 0.0 0.0 0.00 0.00 0.00 76 1014.8
20260906140703 84 188 0.0 1.0 0.00 0.00 0.00 77 1014.7
20260906140159 83 215 0.0 0.0 0.00 0.00 0.00 79 1015.1
20260906135655 83 173 0.0 0.0 0.00 0.00 0.00 78 1015.1
20260906135151 83 180 0.0 0.0 0.00 0.00 0.00 79 1015.0
20260906134647 82 74 0.0 1.0 0.00 0.00 0.00 80 1014.8
20260906134141 82 254 0.0 1.0 0.00 0.00 0.00 80 1015.0
20260906133638 82 187 0.0 1.0 0.00 0.00 0.00 81 1014.9
20260906133137 82 249 0.0 0.0 0.00 0.00 0.00 82 1014.9
20260906132633 81 186 0.0 0.0 0.00 0.00 0.00 82 1015.0
20260906132129 81 186 0.0 1.0 0.00 0.00 0.00 83 1015.0
20260906131624 81 180 0.0 0.0 0.00 0.00 0.00 84 1014.9
20260906131119 80 294 0.0 1.0 0.00 0.00 0.00 84 1014.9
20260906130614 80 261 0.0 1.0 0.00 0.00 0.00 85 1014.6
20260906130110 79 175 2.0 2.0 0.00 0.00 0.00 86 1014.7
20260906125607 79 180 0.0 0.0 0.00 0.00 0.00 87 1014.6
20260906125106 79 172 0.0 0.0 0.00 0.00 0.00 87 1014.8
20260906124602 78 172 0.0 0.0 0.00 0.00 0.00 87 1014.5
20260906124057 78 172 0.0 0.0 0.00 0.00 0.00 87 1014.7
20260906123556 78 172 0.0 0.0 0.00 0.00 0.00 87 1014.8
20260906123051 78 172 0.0 0.0 0.00 0.00 0.00 88 1014.6
20260906122550 78 172 0.0 0.0 0.00 0.00 0.00 88 1014.6
20260906122046 78 172 0.0 0.0 0.00 0.00 0.00 87 1014.4
20260906121542 78 172 0.0 0.0 0.00 0.00 0.00 87 1014.5
20260906121039 78 165 0.0 0.0 0.00 0.00 0.00 87 1014.4
20260906120533 78 165 0.0 0.0 0.00 0.00 0.00 87 1014.3
20260906120031 78 165 0.0 0.0 0.00 0.00 0.00 87 1014.3
20260906115531 78 195 0.0 0.0 0.00 0.00 0.00 87 1014.1
20260906115026 78 195 0.0 0.0 0.00 0.00 0.00 87 1014.2
20260906114526 78 195 0.0 0.0 0.00 0.00 0.00 86 1014.1
20260906114022 78 195 0.0 0.0 0.00 0.00 0.00 86 1014.1
20260906113520 78 195 0.0 0.0 0.00 0.00 0.00 86 1014.0
20260906113016 78 195 0.0 0.0 0.00 0.00 0.00 86 1014.2
20260906112511 78 195 0.0 0.0 0.00 0.00 0.00 86 1013.9
20260906112007 79 195 0.0 1.0 0.00 0.00 0.00 85 1014.1
20260906111507 79 180 0.0 0.0 0.00 0.00 0.00 85 1014.0
20260906111001 79 180 0.0 0.0 0.00 0.00 0.00 85 1013.9
20260906110456 79 180 0.0 0.0 0.00 0.00 0.00 85 1013.8
20260906105955 78 180 0.0 0.0 0.00 0.00 0.00 85 1014.1
20260906105451 78 180 0.0 0.0 0.00 0.00 0.00 85 1013.8
20260906104947 78 254 0.0 0.0 0.00 0.00 0.00 85 1013.8
20260906104446 78 254 0.0 0.0 0.00 0.00 0.00 85 1013.8
20260906103945 79 254 0.0 0.0 0.00 0.00 0.00 85 1013.6
20260906103443 79 254 0.0 0.0 0.00 0.00 0.00 84 1013.6
20260906102939 79 254 0.0 0.0 0.00 0.00 0.00 84 1013.8
20260906102438 79 254 0.0 1.0 0.00 0.00 0.00 84 1013.8
20260906101933 79 180 0.0 0.0 0.00 0.00 0.00 83 1013.8
20260906101428 79 180 0.0 0.0 0.00 0.00 0.00 83 1013.7
20260906100924 79 180 0.0 0.0 0.00 0.00 0.00 83 1013.5
20260906100423 80 180 0.0 0.0 0.00 0.00 0.00 83 1013.4
20260906095918 80 180 0.0 0.0 0.00 0.00 0.00 83 1013.3
20260906095414 80 180 0.0 0.0 0.00 0.00 0.00 83 1013.4
20260906094914 80 180 0.0 0.0 0.00 0.00 0.00 82 1013.5
20260906094409 80 180 0.0 0.0 0.00 0.00 0.00 82 1013.3
20260906093905 80 180 0.0 0.0 0.00 0.00 0.00 81 1013.3
20260906093401 80 180 0.0 1.0 0.00 0.00 0.00 81 1013.0
20260906092901 81 188 0.0 0.0 0.00 0.00 0.00 81 1013.4
20260906092401 81 188 0.0 0.0 0.00 0.00 0.00 80 1012.9
20260906091856 81 180 0.0 0.0 0.00 0.00 0.00 80 1013.0
20260906091352 81 180 0.0 0.0 0.00 0.00 0.00 80 1013.0
20260906090849 82 174 0.0 0.0 0.00 0.00 0.00 80 1012.8
20260906090347 82 188 0.0 0.0 0.00 0.00 0.00 79 1013.1
20260906085842 82 188 0.0 1.0 0.00 0.00 0.00 79 1013.1
20260906085341 82 185 0.0 2.0 0.00 0.00 0.00 79 1013.0
20260906084836 82 262 0.0 0.0 0.00 0.00 0.00 79 1013.0
20260906084337 82 195 0.0 1.0 0.00 0.00 0.00 79 1013.0
20260906083831 82 173 0.0 0.0 0.00 0.00 0.00 79 1013.3
20260906083327 82 188 0.0 1.0 0.00 0.00 0.00 79 1012.8
20260906082826 82 263 0.0 1.0 0.00 0.00 0.00 78 1013.1
20260906082321 82 270 0.0 2.0 0.00 0.00 0.00 78 1012.8
20260906081817 82 180 0.0 0.0 0.00 0.00 0.00 79 1012.6
20260906081313 82 203 0.0 1.0 0.00 0.00 0.00 78 1012.7
20260906080809 82 180 0.0 2.0 0.00 0.00 0.00 79 1012.9
20260906080305 82 194 0.0 0.0 0.00 0.00 0.00 78 1012.9
20260906075804 82 185 0.0 2.0 0.00 0.00 0.00 79 1013.0
20260906075306 82 172 1.0 1.0 0.00 0.00 0.00 79 1012.8
20260906074759 82 180 0.0 1.0 0.00 0.00 0.00 79 1013.1
20260906074259 82 188 0.0 1.0 0.00 0.00 0.00 79 1013.0
20260906073758 82 180 0.0 1.0 0.00 0.00 0.00 78 1013.1
20260906073253 82 254 1.0 1.0 0.00 0.00 0.00 78 1013.1
20260906072749 82 180 0.0 0.0 0.00 0.00 0.00 78 1013.3
20260906072244 82 180 0.0 0.0 0.00 0.00 0.00 77 1013.1
20260906071741 83 180 0.0 0.0 0.00 0.00 0.00 77 1013.4
20260906071240 83 180 0.0 1.0 0.00 0.00 0.00 77 1013.0
20260906070737 83 257 0.0 0.0 0.00 0.00 0.00 76 1013.3
20260906070233 83 257 0.0 1.0 0.00 0.00 0.00 76 1013.4
20260906065732 83 195 0.0 0.0 0.00 0.00 0.00 75 1013.5
20260906065227 83 180 0.0 0.0 0.00 0.00 0.00 75 1013.4
20260906064723 84 180 0.0 0.0 0.00 0.00 0.00 75 1013.4
20260906064218 84 188 0.0 1.0 0.00 0.00 0.00 75 1013.3
20260906063713 84 180 0.0 0.0 0.00 0.00 0.00 75 1013.4
20260906063209 84 188 0.0 0.0 0.00 0.00 0.00 76 1013.5
20260906062705 83 180 0.0 0.0 0.00 0.00 0.00 76 1013.1
20260906062203 83 180 0.0 0.0 0.00 0.00 0.00 77 1013.3
20260906061659 84 188 0.0 1.0 0.00 0.00 0.00 78 1013.4
20260906061155 84 180 0.0 0.0 0.00 0.00 0.00 75 1013.5
20260906060651 84 180 0.0 0.0 0.00 0.00 0.00 73 1013.6
20260906060148 85 180 0.0 0.0 0.00 0.00 0.00 71 1013.4
20260906055643 84 195 0.0 0.0 0.00 0.00 0.00 70 1013.7
20260906055138 84 195 0.0 0.0 0.00 0.00 0.00 70 1013.3
20260906054634 85 195 0.0 0.0 0.00 0.00 0.00 70 1013.0
20260906054128 85 195 0.0 0.0 0.00 0.00 0.00 70 1013.4
20260906053625 85 195 0.0 0.0 0.00 0.00 0.00 69 1013.5
20260906053120 85 195 0.0 0.0 0.00 0.00 0.00 69 1013.4
20260906052616 86 249 0.0 0.0 0.00 0.00 0.00 69 1013.4
20260906052112 86 215 0.0 1.0 0.00 0.00 0.00 68 1013.6
20260906051608 86 270 0.0 1.0 0.00 0.00 0.00 68 1013.4
20260906051103 86 254 0.0 0.0 0.00 0.00 0.00 68 1013.3
20260906050558 86 254 0.0 0.0 0.00 0.00 0.00 67 1013.8
20260906050054 86 255 0.0 1.0 0.00 0.00 0.00 67 1013.4
20260906045551 86 180 0.0 0.0 0.00 0.00 0.00 67 1013.6
20260906045047 86 215 0.0 1.0 0.00 0.00 0.00 67 1013.6
20260906044543 87 195 0.0 0.0 0.00 0.00 0.00 67 1013.3
20260906044038 86 194 0.0 1.0 0.00 0.00 0.00 67 1013.3
20260906043533 87 172 0.0 1.0 0.00 0.00 0.00 66 1013.4
20260906043030 87 186 0.0 0.0 0.00 0.00 0.00 65 1013.3
20260906042528 87 186 0.0 0.0 0.00 0.00 0.00 65 1013.3
20260906042023 87 186 0.0 1.0 0.00 0.00 0.00 65 1013.3
20260906041520 87 195 0.0 1.0 0.00 0.00 0.00 64 1013.0
20260906041019 88 279 0.0 1.0 0.00 0.00 0.00 64 1013.1
20260906040514 88 270 0.0 0.0 0.00 0.00 0.00 63 1013.3
20260906040010 88 5 0.0 2.0 0.00 0.00 0.00 63 1013.1
20260906035505 88 203 1.0 1.0 0.00 0.00 0.00 63 1013.3
20260906035001 88 180 0.0 2.0 0.00 0.00 0.00 63 1013.4
20260906034500 88 279 1.0 2.0 0.00 0.00 0.00 62 1013.3
20260906033956 88 203 0.0 2.0 0.00 0.00 0.00 61 1013.3
20260906033456 88 191 0.0 2.0 0.00 0.00 0.00 61 1013.1
20260906032952 88 188 0.0 2.0 0.00 0.00 0.00 61 1013.0
20260906032449 89 270 0.0 0.0 0.00 0.00 0.00 61 1013.3
20260906031948 89 267 3.0 3.0 0.00 0.00 0.00 60 1013.3
20260906031444 89 194 0.0 2.0 0.00 0.00 0.00 60 1013.5
20260906030939 89 190 0.0 2.0 0.00 0.00 0.00 61 1013.5
20260906030433 89 203 0.0 2.0 0.00 0.00 0.00 61 1013.4
20260906025928 89 188 0.0 1.0 0.00 0.00 0.00 61 1013.4
20260906025422 89 186 1.0 3.0 0.00 0.00 0.00 60 1013.4
20260906024921 89 180 0.0 1.0 0.00 0.00 0.00 60 1013.3
20260906024420 89 194 0.0 1.0 0.00 0.00 0.00 60 1013.5
20260906023916 89 188 2.0 2.0 0.00 0.00 0.00 59 1013.0
20260906023412 89 180 0.0 2.0 0.00 0.00 0.00 59 1013.3
20260906022912 89 203 1.0 3.0 0.00 0.00 0.00 59 1012.9
20260906022407 89 195 0.0 2.0 0.00 0.00 0.00 59 1012.9
20260906021902 89 255 0.0 3.0 0.00 0.00 0.00 58 1012.7
20260906021403 89 188 0.0 2.0 0.00 0.00 0.00 58 1012.5
20260906020857 90 198 0.0 3.0 0.00 0.00 0.00 58 1012.7
20260906020357 90 180 0.0 2.0 0.00 0.00 0.00 59 1012.5
20260906015851 90 180 0.0 1.0 0.00 0.00 0.00 59 1012.5
20260906015351 91 206 0.0 2.0 0.00 0.00 0.00 58 1012.6
20260906014851 91 258 0.0 2.0 0.00 0.00 0.00 58 1012.2
20260906014351 91 184 2.0 4.0 0.00 0.00 0.00 58 1012.1
20260906013847 91 63 0.0 3.0 0.00 0.00 0.00 56 1012.1
20260906013342 92 191 0.0 2.0 0.00 0.00 0.00 56 1012.1
20260906012838 92 183 3.0 3.0 0.00 0.00 0.00 54 1011.9
20260906012333 93 68 2.0 3.0 0.00 0.00 0.00 53 1011.8
20260906011832 93 185 2.0 3.0 0.00 0.00 0.00 52 1011.4
20260906011327 94 156 5.0 5.0 0.00 0.00 0.00 50 1011.5
20260906010823 94 180 0.0 0.0 0.00 0.00 0.00 48 1011.4
20260906010319 94 188 0.0 2.0 0.00 0.00 0.00 47 1011.3
20260906005814 95 180 0.0 2.0 0.00 0.00 0.00 48 1011.2
20260906005313 95 209 0.0 3.0 0.00 0.00 0.00 47 1011.5
20260906004812 95 157 2.0 2.0 0.00 0.00 0.00 47 1011.3
20260906004312 95 188 0.0 1.0 0.00 0.00 0.00 46 1011.5
20260906003808 96 172 0.0 1.0 0.00 0.00 0.00 46 1011.3
20260906003303 96 180 0.0 1.0 0.00 0.00 0.00 45 1011.2
20260906002759 97 195 0.0 0.0 0.00 0.00 0.00 46 1011.4
20260906002257 97 126 0.0 3.0 0.00 0.00 0.00 44 1011.2
20260906001753 97 187 1.0 2.0 0.00 0.00 0.00 43 1011.3
20260906001248 98 71 2.0 2.0 0.00 0.00 0.00 43 1011.2
20260906000744 99 180 0.0 1.0 0.00 0.00 0.00 43 1011.2
20260906000244 99 261 0.0 1.0 0.00 0.00 0.00 43 1011.3
20260905235739 99 203 0.0 0.0 0.00 0.00 0.00 43 1011.2
20260905235238 99 194 0.0 1.0 0.00 0.00 0.00 42 1011.1
20260905234734 99 240 0.0 1.0 0.00 0.00 0.00 42 1010.9
20260905234229 99 255 0.0 1.0 0.00 0.00 0.00 43 1010.9
20260905233725 99 173 0.0 1.0 0.00 0.00 0.00 42 1011.1
20260905233224 100 180 0.0 1.0 0.00 0.00 0.00 42 1010.9
20260905232719 100 262 0.0 1.0 0.00 0.00 0.00 43 1011.1
20260905232214 102 270 0.0 2.0 0.00 0.00 0.00 41 1011.2
20260905231710 100 190 0.0 0.0 0.00 0.00 0.00 41 1011.1
20260905231206 100 162 2.0 3.0 0.00 0.00 0.00 40 1011.1
20260905230701 100 175 0.0 2.0 0.00 0.00 0.00 41 1011.0
20260905230159 100 192 0.0 2.0 0.00 0.00 0.00 41 1010.9
20260905225659 100 53 0.0 3.0 0.00 0.00 0.00 41 1010.9
20260905225154 100 264 2.0 3.0 0.00 0.00 0.00 40 1011.4
20260905224654 100 191 4.0 4.0 0.00 0.00 0.00 40 1011.3
20260905224154 100 254 0.0 2.0 0.00 0.00 0.00 40 1010.9
20260905223650 101 203 0.0 2.0 0.00 0.00 0.00 41 1010.9
20260905223147 100 173 0.0 1.0 0.00 0.00 0.00 40 1010.9
20260905222643 100 168 0.0 4.0 0.00 0.00 0.00 40 1011.2